Location: George Washington National Forest Helicopter Landing Site
(38.6463°N, 79.0851°W)
Time: 23:24:46
(UTC-04:00)

Tiros 1 despin weight - Pass Details

Date: 26 August 2019
Orbit: 594 x 642 km, 48.2° (Epoch: 19 September)

Event Time Altitude Azimuth Distance (km) Brightness Sun altitude
Rises 21:25:05 0° 199° (SSW) 2,810 ? -17.1°
Reaches altitude 10° 21:27:46 10° 184° (S) 1,913 ? -17.5°
Enters shadow 21:27:48 10° 184° (S) 1,900 ? -17.5°
Maximum altitude 21:31:06 22° 134° (SE) 1,325 - -18.1°
Drops below altitude 10° 21:34:28 10° 84° (E) 1,928 - -18.7°
Sets 21:37:11 0° 69° (ENE) 2,839 - -19.1°
